Wind_Speed
16 15 16 15 15 16 16 15 15 13 12 11 11 11 10 10 11 10 9 8 8 7 7 6 6 7 7 8 9 10 10 11 11 12 13 14 16 17 18 19 20 21 22 23
17 17 18 18 17 17 17 17 15 14 12 11 11 11 12 12 12 12 11 10 10 9 8 8 8 8 8 9 10 10 11 12 12 13 14 16 17 18 19 20 21 22 23 23
18 18 19 19 18 19 18 17 15 14 12 13 12 12 12 13 13 13 13 12 11 11 10 9 9 10 10 10 11 11 12 13 14 15 16 17 18 19 20 21 22 23 23 24
20 20 22 18 19 19 19 18 16 14 13 13 13 13 13 13 13 14 13 12 12 12 11 11 11 11 11 11 12 13 14 15 15 16 17 19 20 21 21 22 23 24 24 25
21 21 20 18 20 20 19 18 16 15 14 14 14 14 13 13 13 13 13 13 13 13 12 12 12 12 13 13 13 14 15 16 17 18 19 20 21 22 23 23 24 24 25 26
21 21 19 17 19 19 19 17 16 16 16 16 16 16 15 15 14 14 14 14 14 14 14 14 14 14 14 15 15 16 17 18 19 19 20 21 22 23 24 24 25 25 26 27
20 20 18 16 17 18 18 15 16 17 17 18 18 19 18 17 16 15 15 15 15 16 16 16 15 15 16 16 16 17 18 19 20 21 22 23 24 24 25 25 26 26 27 28
20 19 16 16 17 18 17 18 18 18 18 19 20 20 19 18 18 17 17 17 17 17 17 17 17 17 17 17 18 19 20 21 22 23 24 25 25 26 26 26 27 27 28 29
20 19 17 17 18 18 18 18 18 19 19 20 20 20 20 20 19 19 19 18 18 18 19 19 18 19 19 19 20 20 21 22 23 24 25 26 27 27 28 28 28 29 29 30
19 18 18 18 18 18 19 19 19 20 21 20 21 21 21 20 20 19 20 20 20 20 20 20 20 20 21 21 22 22 23 24 25 25 26 27 28 28 29 29 29 30 31 31
19 19 19 19 19 19 19 19 20 20 20 21 20 20 20 20 20 20 21 21 21 21 21 21 21 21 22 22 23 24 25 25 26 27 27 28 29 29 30 31 31 32 32 33
20 20 20 21 21 21 20 20 20 22 22 21 21 21 22 21 20 21 21 21 21 21 21 22 22 22 23 23 24 25 26 27 27 28 29 30 31 31 32 32 33 33 34 34
21 21 21 21 21 22 22 21 21 22 22 21 20 20 20 21 21 21 21 21 21 22 22 23 23 24 25 25 26 26 27 28 29 30 31 32 32 33 33 34 35 35 36 36
21 21 20 20 21 21 21 21 21 21 22 22 21 21 21 22 22 22 22 22 22 22 23 24 25 26 26 27 27 28 29 30 31 32 33 34 34 34 34 35 35 36 37 38
21 21 21 21 21 21 21 21 22 22 23 22 21 21 22 22 23 23 23 23 23 24 24 25 26 27 28 28 29 30 31 32 33 34 34 35 36 36 37 37 38 38 39 39
21 21 21 21 21 21 22 22 23 23 24 24 23 23 23 24 24 24 24 25 25 26 26 27 28 29 30 30 31 32 33 34 35 36 37 37 38 39 39 39 40 39 39 40
21 21 22 22 21 21 22 23 24 24 25 25 24 24 24 25 25 25 26 26 27 27 28 29 30 31 31 32 33 34 35 36 37 38 39 40 41 41 41 41 41 41 41 41
22 22 22 22 22 22 22 23 23 24 24 25 24 25 26 26 26 27 27 28 29 30 30 31 32 33 33 34 35 36 38 39 40 41 41 41 42 42 43 43 43 43 42 42
21 21 21 22 22 23 23 23 23 24 24 25 25 26 27 27 28 29 29 30 31 32 32 33 34 35 36 37 38 39 40 41 42 43 43 43 43 44 44 44 44 44 43 43
21 21 22 22 23 23 22 23 23 23 24 25 26 27 28 29 30 31 32 33 33 33 34 34 35 37 38 39 40 41 42 43 43 44 44 44 44 44 45 45 45 44 44 44
21 21 21 22 22 23 23 23 24 25 25 26 27 28 30 30 31 32 33 34 35 35 35 36 37 38 40 40 41 42 43 44 45 45 45 45 46 46 46 46 46 45 45 44
21 21 22 22 24 24 24 24 24 25 26 27 28 30 31 32 33 34 35 36 36 37 37 39 40 40 41 42 43 44 44 45 46 46 46 46 47 47 47 47 46 45 45 44
22 22 22 23 24 24 24 25 25 26 27 28 29 31 32 34 35 36 36 38 39 40 40 41 42 42 43 44 44 45 45 46 47 47 47 47 47 47 47 46 46 45 44 43
24 25 25 25 25 26 26 27 28 29 30 31 32 33 35 36 37 38 39 40 40 41 42 42 43 44 44 45 46 46 47 47 47 47 47 47 47 47 47 46 46 45 44 43
27 27 27 27 27 28 29 30 31 33 34 34 35 37 37 38 39 40 41 41 42 43 43 44 45 45 46 46 47 47 47 47 48 48 48 48 47 47 47 46 45 44 43 41
29 30 31 31 31 32 33 33 34 35 35 36 37 38 39 39 40 41 42 42 43 44 44 45 46 46 47 47 47 47 48 48 48 48 47 47 46 45 45 43 42 41 39 38
32 33 33 33 34 35 35 35 36 37 38 38 39 39 40 40 41 42 43 43 44 44 45 45 46 46 46 47 47 48 47 47 46 46 45 44 43 43 42 41 39 37 35 34
Wind_Direction
247 252 255 257 258 259 259 265 272 275 278 272 268 269 265 264 264 266 269 269 266 266 274 286 300 310 320 328 334 337 339 338 337 336 336 336 337 337 336 335 335 335 335 334
246 253 257 256 256 257 258 261 265 268 270 267 265 266 265 264 266 265 266 268 265 264 272 282 293 302 308 316 323 327 330 331 331 330 331 331 332 333 334 334 334 334 334 333
250 255 260 260 260 261 260 259 261 265 265 262 263 263 263 264 263 264 266 266 263 263 270 280 289 295 301 306 311 317 321 323 324 325 326 327 328 330 331 332 333 333 332 332
254 259 261 262 258 261 263 260 261 261 261 261 262 261 263 263 265 265 266 265 263 265 270 278 286 291 294 299 305 310 314 316 319 321 323 325 326 327 328 329 330 331 331 331
257 262 265 262 260 262 262 259 259 259 259 261 260 264 266 267 268 266 266 266 266 268 271 278 284 289 292 295 301 305 309 312 315 317 320 323 325 325 325 326 327 328 329 329
257 261 264 264 259 259 260 258 257 259 259 260 260 262 266 268 268 267 268 268 269 270 273 277 283 288 291 294 298 302 305 308 311 313 316 319 321 322 322 323 324 325 326 327
256 262 265 264 259 257 258 259 255 256 257 256 259 261 264 263 264 268 270 271 272 273 275 278 283 287 291 293 296 299 303 306 308 310 313 315 317 318 319 321 322 323 324 326
257 262 262 258 258 257 259 256 257 257 255 257 260 262 262 261 263 266 268 270 272 274 276 279 282 286 289 292 294 297 300 304 306 308 310 312 314 316 317 319 319 321 322 323
256 256 255 257 259 256 257 256 256 254 256 259 262 260 260 262 262 266 267 268 269 272 275 278 281 283 287 290 293 296 299 302 305 307 308 310 312 314 315 317 318 319 320 321
250 249 252 257 256 256 256 254 254 255 257 259 260 260 261 262 263 265 267 267 269 271 274 277 280 283 286 289 291 293 297 300 303 305 307 309 311 312 313 315 316 317 318 319
248 249 252 254 254 255 256 257 258 257 256 258 258 259 263 264 265 266 268 269 269 270 273 277 281 284 287 289 290 292 296 299 301 304 306 308 310 310 311 312 313 315 316 317
250 249 251 252 253 254 257 257 257 256 255 255 256 259 261 262 265 268 270 271 272 274 276 278 281 284 286 288 290 292 295 297 300 302 305 306 307 308 309 310 312 313 314 315
251 250 251 252 253 255 257 256 255 255 253 252 254 259 261 262 265 268 270 271 273 275 278 280 282 284 286 288 290 292 294 296 298 300 302 303 305 307 308 309 310 311 312 313
250 249 251 252 253 254 253 251 250 251 251 251 254 259 262 265 268 268 269 271 273 276 279 281 283 285 287 288 290 291 293 294 297 298 299 301 303 305 306 307 308 309 309 311
250 249 250 251 252 254 251 249 248 249 251 253 256 259 262 264 266 269 272 274 276 278 279 281 284 285 287 288 289 291 292 294 296 298 299 300 301 303 304 304 305 306 307 308
254 253 251 251 253 252 249 247 247 248 250 254 257 257 259 261 265 268 272 274 276 278 280 281 283 286 287 288 289 290 292 294 295 297 298 298 299 301 302 303 304 304 305 306
255 256 254 253 254 253 249 247 247 248 252 253 258 260 261 262 265 268 271 276 277 279 281 282 284 286 287 288 289 290 292 294 295 295 296 297 298 299 300 301 301 302 303 303
256 257 257 255 254 254 252 249 249 251 254 255 258 262 264 266 267 270 273 276 278 278 280 282 283 284 287 289 290 291 292 293 294 294 295 296 297 297 299 300 300 301 301 301
257 258 257 255 254 253 251 250 253 255 256 258 261 264 266 269 270 271 272 274 276 278 280 282 284 286 288 289 291 291 292 293 294 294 295 296 297 297 298 299 299 299 299 299
255 254 255 257 258 258 256 253 255 257 258 260 263 264 266 269 271 273 274 275 277 280 283 284 285 287 289 290 291 291 292 292 293 294 295 296 296 296 297 298 299 298 297 297
256 257 259 261 260 258 256 256 259 261 262 263 265 266 268 270 273 274 276 278 280 282 284 286 287 288 288 289 289 290 292 292 293 294 294 294 295 296 296 297 297 297 297 296
261 262 262 262 261 261 261 262 263 262 263 265 267 269 271 273 275 277 279 280 282 283 285 286 287 287 288 288 289 290 291 292 292 293 294 294 294 295 295 296 296 296 296 295
263 264 263 263 264 265 266 266 265 266 269 270 272 273 275 277 278 280 280 281 283 284 285 286 287 287 288 289 290 290 291 292 292 293 294 294 294 295 295 295 295 295 295 294
267 266 266 267 267 267 270 272 273 274 275 276 277 278 279 280 281 282 283 284 285 286 286 287 287 287 288 289 290 291 292 292 292 293 293 294 294 295 294 294 294 293 293 292
268 268 269 270 272 274 276 276 277 278 279 280 281 281 281 281 281 282 284 284 285 286 287 287 287 288 289 290 291 291 291 292 292 292 293 293 294 294 295 295 294 292 291 290
271 275 277 278 279 279 280 280 281 281 281 281 282 282 282 283 284 284 285 286 287 288 288 288 289 289 290 290 291 291 292 292 292 292 293 293 294 294 295 295 294 292 291 289
275 277 278 279 280 281 281 282 283 284 284 284 284 284 284 285 286 286 287 287 287 288 288 289 290 290 291 291 292 293 293 293 292 293 294 294 295 295 295 294 294 293 291 290
Height
5826 5828 5829 5830 5831 5832 5833 5833 5834 5835 5835 5835 5835 5835 5834 5834 5834 5834 5834 5833 5833 5832 5831 5831 5830 5829 5828 5827 5825 5824 5822 5821 5819 5817 5815 5813 5810 5808 5805 5802 5799 5795 5792 5788
5822 5823 5824 5825 5827 5828 5828 5829 5830 5831 5832 5832 5831 5831 5831 5831 5831 5831 5831 5830 5830 5829 5829 5828 5827 5827 5826 5824 5823 5822 5820 5818 5817 5815 5812 5810 5807 5805 5802 5798 5795 5792 5788 5784
5817 5818 5819 5821 5823 5823 5824 5825 5826 5827 5829 5828 5828 5828 5828 5828 5828 5828 5827 5827 5827 5826 5826 5825 5825 5824 5823 5822 5821 5819 5817 5816 5814 5811 5809 5807 5804 5801 5798 5795 5791 5788 5784 5780
5812 5814 5814 5819 5818 5818 5819 5820 5822 5823 5824 5824 5825 5825 5825 5825 5824 5824 5824 5823 5823 5823 5822 5822 5821 5820 5820 5818 5817 5816 5814 5812 5810 5808 5806 5803 5800 5797 5794 5791 5787 5783 5779 5775
5807 5808 5810 5813 5813 5814 5815 5816 5818 5819 5820 5821 5821 5821 5821 5821 5821 5820 5820 5820 5819 5819 5819 5818 5817 5817 5816 5815 5813 5812 5810 5808 5806 5804 5802 5799 5796 5793 5790 5786 5783 5779 5775 5771
5802 5803 5805 5808 5808 5808 5811 5812 5814 5814 5815 5816 5816 5817 5818 5817 5817 5816 5816 5815 5815 5815 5815 5814 5813 5813 5812 5810 5809 5808 5806 5804 5802 5800 5797 5794 5791 5788 5785 5781 5778 5774 5770 5766
5797 5798 5800 5803 5803 5805 5807 5809 5809 5809 5810 5811 5812 5812 5813 5812 5812 5812 5812 5811 5811 5810 5810 5810 5809 5808 5807 5806 5804 5803 5801 5799 5797 5795 5792 5789 5786 5783 5780 5776 5772 5769 5765 5760
5792 5794 5798 5797 5798 5800 5802 5803 5803 5804 5805 5806 5806 5807 5807 5807 5807 5807 5807 5806 5806 5806 5805 5805 5804 5804 5802 5801 5799 5798 5796 5794 5792 5790 5787 5784 5781 5778 5774 5770 5767 5763 5759 5755
5788 5791 5792 5792 5793 5794 5795 5796 5797 5798 5799 5800 5801 5801 5801 5801 5802 5801 5801 5801 5801 5800 5800 5800 5799 5798 5797 5796 5794 5792 5790 5788 5786 5784 5781 5778 5775 5772 5768 5764 5761 5757 5753 5749
5782 5784 5785 5786 5787 5788 5789 5790 5792 5793 5793 5794 5794 5795 5795 5795 5795 5796 5795 5795 5795 5795 5795 5794 5793 5793 5791 5790 5788 5787 5784 5782 5780 5778 5775 5772 5769 5765 5762 5758 5754 5750 5746 5742
5776 5778 5780 5781 5781 5783 5784 5785 5785 5786 5787 5787 5788 5789 5790 5790 5790 5790 5790 5790 5789 5789 5789 5788 5787 5787 5785 5784 5782 5780 5778 5776 5773 5771 5768 5765 5762 5759 5755 5751 5747 5743 5739 5735
5770 5772 5773 5774 5775 5776 5777 5778 5779 5780 5781 5781 5782 5783 5783 5784 5784 5784 5784 5783 5783 5783 5782 5782 5781 5780 5779 5777 5776 5774 5771 5769 5767 5764 5761 5758 5755 5751 5747 5744 5740 5736 5731 5727
5763 5765 5766 5768 5769 5770 5771 5771 5772 5773 5774 5775 5775 5776 5777 5777 5778 5778 5777 5777 5777 5776 5776 5775 5774 5773 5772 5770 5768 5766 5764 5762 5759 5756 5753 5750 5747 5743 5740 5736 5731 5727 5723 5719
5757 5758 5760 5761 5762 5763 5764 5765 5765 5767 5768 5769 5769 5770 5771 5771 5771 5771 5771 5771 5770 5770 5769 5768 5767 5766 5764 5763 5761 5759 5756 5754 5751 5748 5745 5742 5739 5735 5731 5728 5724 5719 5714 5710
5750 5752 5753 5754 5755 5756 5757 5758 5759 5760 5761 5762 5763 5764 5764 5765 5765 5764 5764 5764 5763 5762 5761 5760 5759 5758 5756 5755 5753 5750 5748 5745 5743 5740 5736 5733 5729 5726 5722 5718 5714 5710 5706 5701
5743 5744 5746 5747 5748 5749 5750 5751 5753 5754 5755 5756 5756 5757 5757 5757 5757 5757 5757 5756 5756 5755 5754 5752 5751 5749 5748 5746 5744 5742 5739 5736 5733 5730 5727 5723 5720 5716 5712 5708 5704 5700 5696 5692
5737 5738 5739 5740 5741 5742 5743 5745 5746 5747 5747 5748 5749 5749 5750 5750 5750 5749 5749 5748 5747 5747 5745 5744 5742 5741 5739 5737 5734 5732 5729 5726 5723 5720 5716 5713 5709 5705 5701 5698 5694 5690 5686 5681
5731 5731 5732 5733 5734 5735 5736 5737 5738 5739 5740 5741 5741 5742 5742 5742 5742 5741 5741 5740 5739 5738 5737 5735 5733 5731 5729 5727 5724 5722 5719 5716 5713 5709 5705 5702 5698 5694 5690 5686 5682 5678 5674 5670
5724 5724 5725 5726 5727 5728 5729 5730 5731 5732 5733 5733 5733 5734 5734 5733 5733 5733 5732 5731 5730 5729 5727 5725 5723 5721 5719 5717 5714 5711 5708 5704 5701 5697 5693 5690 5686 5682 5678 5674 5670 5666 5662 5658
5718 5718 5719 5719 5720 5721 5722 5723 5723 5724 5725 5725 5725 5725 5725 5725 5724 5723 5722 5721 5720 5718 5716 5714 5712 5710 5707 5705 5702 5699 5695 5692 5689 5685 5681 5677 5673 5669 5665 5661 5657 5653 5649 5645
5712 5712 5712 5713 5713 5714 5715 5715 5716 5716 5716 5716 5717 5716 5716 5715 5714 5713 5712 5710 5709 5707 5705 5703 5701 5698 5695 5692 5689 5686 5683 5679 5676 5672 5668 5664 5660 5656 5652 5648 5644 5640 5636 5632
5705 5705 5705 5706 5706 5706 5706 5707 5707 5707 5707 5707 5707 5706 5705 5705 5703 5702 5701 5699 5698 5695 5693 5691 5688 5686 5683 5680 5677 5673 5670 5666 5662 5659 5655 5651 5647 5643 5639 5634 5630 5626 5623 5619
5698 5698 5698 5698 5698 5698 5698 5698 5698 5698 5698 5698 5697 5696 5695 5694 5692 5691 5689 5688 5685 5683 5681 5678 5676 5673 5670 5667 5663 5660 5656 5653 5649 5645 5641 5637 5633 5629 5625 5621 5617 5613 5609 5606
5691 5691 5690 5691 5691 5691 5690 5690 5689 5689 5688 5688 5687 5686 5684 5683 5681 5679 5677 5675 5673 5670 5668 5665 5662 5659 5656 5653 5649 5646 5642 5638 5635 5631 5626 5622 5618 5614 5610 5606 5603 5599 5596 5593
5683 5683 5683 5682 5682 5682 5681 5680 5680 5679 5678 5677 5675 5674 5672 5670 5669 5667 5664 5662 5660 5657 5654 5651 5648 5645 5642 5638 5635 5631 5628 5624 5620 5616 5612 5608 5604 5600 5596 5592 5589 5585 5582 5579
5674 5674 5673 5673 5673 5672 5671 5670 5669 5668 5666 5665 5663 5661 5660 5658 5655 5653 5651 5649 5646 5643 5640 5637 5634 5631 5627 5624 5620 5617 5613 5609 5605 5601 5597 5593 5590 5586 5582 5579 5575 5572 5569 5566
5665 5664 5663 5663 5662 5661 5660 5658 5657 5656 5654 5652 5651 5649 5647 5644 5642 5640 5637 5635 5632 5629 5626 5623 5619 5616 5613 5609 5605 5602 5598 5594 5590 5587 5583 5579 5576 5572 5569 5566 5562 5559 5557 5554